Regional Weather Roundup
Issued by NWS

Home | Current Version | Previous Version | Text Only | Print | Product List | Glossary Off
Versions: 1 2 3 4 5 6 7 8 9 10 11 12 13 14 15 16 17 18 19 20 21 22 23 24 25 26 27 28 29 30 31 32 33 34 35 36 37 38 39 40 41 42 43 44 45 46 47 48 49 50

000
ASUS43 KIND 200909
RWRIN

WEATHER ROUNDUP FOR INDIANA
NATIONAL WEATHER SERVICE INDIANAPOLIS IN
400 AM EST SAT JAN 20 2018

NOTE: "FAIR" INDICATES FEW OR NO CLOUDS BELOW 12,000 FEET WITH NO
SIGNIFICANT WEATHER AND/OR OBSTRUCTIONS TO VISIBILITY.

* - STATION DOES NOT REPORT WEATHER SUCH AS PRECIPITATION OR FOG.

+ - STATION NOT QUALITY CONTROLLED BY THE NATIONAL WEATHER SERVICE.
    USE DATA WITH CAUTION...ESPECIALLY DEWPOINT AND RELATIVE
    HUMIDITY OBSERVATIONS.

INZ001>003-010>013-019-020-201000-
NORTHWEST INDIANA

CITY           SKY/WX    TMP DP  RH WIND       PRES   REMARKS
GARY /AIRPORT/ FAIR      36  28  70 SW8G18    29.85S WCI  30
KNOX *+        FAIR      32  27  80 SW15G21   29.88R WCI  22
LA PORTE +     FAIR      31  26  79 SW9       29.86S WCI  23
MICHIGAN CITY+ FAIR      34  27  75 SW10G16   29.85S WCI  26
MONTICELLO +   FAIR      32  25  74 SW14      29.91R WCI  22
RENSSELAER +   FAIR      32  27  80 SW21      29.89S WCI  20
VALPARAISO     FAIR      35  27  72 SW10      29.86R WCI  27

$$

LMZ046-743>745-201000-
SOUTHERN LAKE MICHIGAN

STATION/POSITION TIME  TEMP    WIND        PRES    WAVE
                       AIR SEA DIR/SP/G            HT
                 (UTC) (F)     (DEG/KT/KT) (MB)    (FT)
BURNS HARBOR     0840   37     220/ 16/ 23 1011.2R
MICHIGAN CITY    0840   38     190/ 13/ 17   N/A

$$

INZ004-005-014>016-021>024-201000-
NORTH CENTRAL INDIANA

CITY           SKY/WX    TMP DP  RH WIND       PRES   REMARKS
GOSHEN         FAIR      32  24  72 SW15G25   29.86R WCI  22
LOGANSPORT +   FAIR      32  25  74 SW16G23   29.93R WCI  21
PERU/GRISSOM   FAIR      33  26  75 SW17      29.91S WCI  21
ROCHESTER +    FAIR      36  28  75 SW10      29.90R WCI  28
SOUTH BEND     FAIR      31  24  75 SW15      29.85R WCI  20
WARSAW +       FAIR      32  25  74 SW6       29.88S WCI  26

$$

INZ006>009-017-018-025>027-201000-
NORTHEAST INDIANA

CITY           SKY/WX    TMP DP  RH WIND       PRES   REMARKS
AUBURN +       FAIR     N/A N/A N/A SW10G17   29.88S
FORT WAYNE     FAIR      33  24  69 SW15      29.90S WCI  23
HUNTINGTON +   FAIR      32  22  67 SW12G17   29.91S WCI  23
KENDALLVILLE + FAIR      32  24  72 SW13      29.86S WCI  23

$$

INZ028-029-035-036-043>045-051>053-201000-
WEST CENTRAL INDIANA

CITY           SKY/WX    TMP DP  RH WIND       PRES   REMARKS
CRAWFORDSVL +  FAIR      30  23  74 SW15      29.95S WCI  19
GREENCASTLE +  FAIR      32  21  64 SW7       29.99F WCI  26
LAFAYETTE      FAIR      32  24  72 SW9G17    29.94S WCI  24
TERRE HAUTE    FAIR      27  18  69 S8        30.02R WCI  19

$$

INZ030>032-037>040-046>048-054>057-064-065-201000-
CENTRAL INDIANA

CITY           SKY/WX    TMP DP  RH WIND       PRES   REMARKS
FISHERS *+     FAIR      34  27  75 SW16      29.98S WCI  23
FRANKFORT +    FAIR      34  26  72 SW18G24   29.96R WCI  23
GREENWOOD *+   FAIR      37  23  56 SW10G18   30.00S WCI  30
INDIANAPOLIS   FAIR      34  22  61 SW14G23   29.99S WCI  25
-EAGLE CREEK   FAIR      34  21  59 SW10G17   29.97S WCI  26
MARION +       FAIR      32  24  71 SW16      29.94S WCI  21
MT COMFORT *+  FAIR      34  27  75 SW13      29.98F WCI  25
SHELBYVILLE    FAIR      32  21  64 SW12      30.01R WCI  23
ZIONSVILLE +   FAIR      32  23  69 SW16      29.96S WCI  21

$$

INZ033-034-041-042-049-050-058-059-201000-
EAST CENTRAL INDIANA

CITY           SKY/WX    TMP DP  RH WIND       PRES   REMARKS
MUNCIE         FAIR      34  22  61 SW15      29.94F WCI  24
RICHMOND +     FAIR      32  23  69 W20       30.00R WCI  20

$$

INZ060-061-067>069-081>083-085>088-201000-
SOUTHWEST INDIANA

CITY           SKY/WX    TMP DP  RH WIND       PRES   REMARKS
EVANSVILLE     FAIR      33  19  56 S7        30.09R WCI  27
HUNTINGBURG +  FAIR      34  20  56 S12       30.08S WCI  25
WASHINGTON +   FAIR      33  18  53 S9        30.05S WCI  25

$$

INZ062-063-066-070>080-084-089>092-201000-
SOUTH CENTRAL AND SOUTHEAST INDIANA

CITY           SKY/WX    TMP DP  RH WIND       PRES   REMARKS
BATESVILLE *+    N/A    N/A N/A N/A MISG        N/A
BEDFORD +      FAIR      36  19  51 SW10      30.04R WCI  28
BLOOMINGTON    FAIR      35  20  54 SW15G24   30.02R WCI  25
FRENCH LICK *+ FAIR      36  14  41 SW9G16    30.06S WCI  29
MADISON *+     FAIR      36  23  60 SW9       30.07S WCI  29
NORTH VERNON + FAIR      32  21  64 SW10      30.05R WCI  24
SEYMOUR +      FAIR      36  21  55 SW10      30.05R WCI  28

$$




USA.gov is the U.S. government's official web portal to all federal, state and local government web resources and services.